Location: Columbia
(38.9520°N, 92.3340°W)
Time: 19:05:07
(UTC-05:00)

Cosmos 1603 - Visible Passes

Search period start: 07 July 2015 00:00
Search period end: 17 July 2015 00:00
Orbit: 830 x 861 km, 71.0° (Epoch: 07 July)

Date Brightness Start Highest point End Pass type
(mag) Time Alt. Az. Time Alt. Az. Time Alt. Az.
07 Jul 4.4 01:51:25 10° NNW 01:56:56 49° ENE 01:58:22 40° ESE visible
07 Jul 5.1 03:36:29 10° NW 03:40:13 21° W 03:40:13 21° W visible
08 Jul 4.4 01:37:34 10° NNW 01:43:03 48° ENE 01:44:11 42° E visible
08 Jul 5.1 03:22:33 10° NW 03:26:02 21° W 03:26:02 21° W visible
09 Jul 4.4 01:23:43 10° N 01:29:10 46° ENE 01:30:04 43° E visible
09 Jul 5.1 03:08:37 10° NW 03:11:55 22° W 03:11:55 22° W visible
10 Jul 4.4 01:09:52 10° N 01:15:17 45° ENE 01:16:01 43° E visible
10 Jul 5.2 02:54:41 10° NW 02:57:53 22° W 02:57:53 22° W visible
11 Jul 4.4 00:56:01 10° N 01:01:24 43° ENE 01:02:02 42° E visible
11 Jul 5.2 02:40:45 10° NW 02:43:53 22° W 02:43:53 22° W visible
12 Jul 4.4 00:42:09 10° N 00:47:30 42° ENE 00:48:05 41° ENE visible
12 Jul 5.2 02:26:50 10° NW 02:29:57 23° W 02:29:57 23° W visible
13 Jul 4.5 00:28:18 10° N 00:33:37 41° ENE 00:34:11 40° ENE visible
13 Jul 5.2 02:12:55 10° NW 02:16:03 23° WNW 02:16:03 23° WNW visible
14 Jul 4.5 00:14:26 10° N 00:19:44 40° ENE 00:20:19 39° ENE visible
14 Jul 5.2 01:58:59 10° NW 02:02:12 24° WNW 02:02:12 24° WNW visible
15 Jul 4.5 00:00:35 10° N 00:05:50 38° ENE 00:06:31 37° ENE visible
15 Jul 5.2 01:45:03 10° NW 01:48:22 25° WNW 01:48:22 25° WNW visible
15 Jul 4.5 23:46:44 10° N 23:51:56 37° ENE 23:52:43 36° ENE visible
16 Jul 5.1 01:31:08 10° NW 01:34:35 26° W 01:34:35 26° W visible
16 Jul 4.6 23:32:53 10° N 23:38:03 36° ENE 23:38:58 34° E visible
